GW6130 Weather Reports


Display with metric or nautical units.
time (UTC)temp
F
wind
direction
speed
MPH
gust
MPH
rain 1hr
in
rain 24hr
in
rain mn
in
humidity
%
barometer
mb
20260507001230 67 40 5.0 8.0 0.00 0.00 0.00 78 1014.0
20260507000726 68 45 4.0 6.0 0.00 0.00 0.00 77 1014.2
20260507000222 68 7 1.0 2.0 0.00 0.00 0.00 77 1013.7
20260506235719 68 41 2.0 2.0 0.00 0.00 0.00 77 1013.7
20260506235214 68 356 2.0 3.0 0.00 0.00 0.00 77 1013.8
20260506234711 68 303 5.0 8.0 0.00 0.00 0.00 76 1014.0
20260506234209 68 8 2.0 2.0 0.00 0.00 0.00 77 1013.6
20260506233706 68 133 5.0 7.0 0.00 0.00 0.00 76 1013.6
20260506233203 69 34 5.0 6.0 0.00 0.00 0.00 75 1013.3
20260506232659 69 49 7.0 11.0 0.00 0.00 0.00 74 1013.3
20260506232154 70 310 2.0 3.0 0.00 0.00 0.00 74 1013.4
20260506231652 71 11 7.0 11.0 0.00 0.00 0.00 73 1013.5
20260506231150 71 113 3.0 5.0 0.00 0.00 0.00 73 1013.5
20260506230647 73 345 5.0 10.0 0.00 0.00 0.00 71 1013.3
20260506230143 73 232 2.0 5.0 0.00 0.00 0.00 71 1013.2
20260506225640 74 18 3.0 5.0 0.00 0.00 0.00 71 1013.2
20260506225137 74 355 3.0 5.0 0.00 0.00 0.00 71 1012.9
20260506224633 74 60 2.0 3.0 0.00 0.00 0.00 72 1013.0
20260506224130 75 96 2.0 3.0 0.00 0.00 0.00 71 1012.9
20260506223626 76 356 7.0 10.0 0.00 0.00 0.00 70 1013.0
20260506223122 76 17 3.0 3.0 0.00 0.00 0.00 69 1013.0
20260506222619 78 22 3.0 6.0 0.00 0.00 0.00 69 1012.9
20260506222116 78 48 3.0 6.0 0.00 0.00 0.00 68 1012.8
20260506221613 79 24 5.0 8.0 0.00 0.00 0.00 66 1012.7
20260506221111 78 48 3.0 3.0 0.00 0.00 0.00 68 1012.7
20260506220607 78 41 2.0 2.0 0.00 0.00 0.00 69 1012.6
20260506215559 77 14 3.0 5.0 0.00 0.00 0.00 69 1012.8
20260506215055 77 304 3.0 6.0 0.00 0.00 0.00 69 1012.7
20260506214552 79 358 2.0 3.0 0.00 0.00 0.00 68 1012.8
20260506214050 79 338 4.0 6.0 0.00 0.00 0.00 68 1012.6
20260506213548 79 346 6.0 9.0 0.00 0.00 0.00 68 1012.5
20260506213045 79 50 1.0 2.0 0.00 0.00 0.00 69 1012.5
20260506212541 80 62 2.0 3.0 0.00 0.00 0.00 69 1012.9
20260506212036 80 46 4.0 6.0 0.00 0.00 0.00 68 1012.6
20260506211532 80 9 4.0 6.0 0.00 0.00 0.00 69 1012.4
20260506211030 81 352 5.0 6.0 0.00 0.00 0.00 69 1012.7
20260506210526 79 317 5.0 7.0 0.00 0.00 0.00 72 1012.4
20260506210023 79 14 5.0 6.0 0.00 0.00 0.00 72 1012.5
20260506205520 79 14 3.0 5.0 0.00 0.00 0.00 71 1012.5
20260506205015 79 112 1.0 1.0 0.00 0.00 0.00 72 1012.6
20260506204513 80 1 3.0 5.0 0.00 0.00 0.00 71 1012.5
20260506204010 84 99 5.0 10.0 0.00 0.00 0.00 66 1012.4
20260506203508 84 52 3.0 3.0 0.00 0.00 0.00 68 1012.5
20260506203004 85 39 2.0 2.0 0.00 0.00 0.00 66 1012.5
20260506202502 85 48 2.0 2.0 0.00 0.00 0.00 67 1012.4
20260506201957 84 61 0.0 0.0 0.00 0.00 0.00 70 1012.5
20260506201456 84 124 2.0 2.0 0.00 0.00 0.00 68 1012.6
20260506200952 83 66 1.0 2.0 0.00 0.00 0.00 69 1012.6
20260506200449 83 90 2.0 2.0 0.00 0.00 0.00 69 1012.7
20260506195945 84 46 0.0 0.0 0.00 0.00 0.00 69 1012.6
20260506195442 84 79 2.0 3.0 0.00 0.00 0.00 68 1012.9
20260506194938 85 16 3.0 3.0 0.00 0.00 0.00 67 1012.7
20260506194436 84 2 2.0 2.0 0.00 0.00 0.00 70 1012.5
20260506193932 84 89 2.0 2.0 0.00 0.00 0.00 69 1012.5
20260506193430 84 30 1.0 1.0 0.00 0.00 0.00 69 1012.6
20260506192926 83 28 0.0 0.0 0.00 0.00 0.00 73 1012.6
20260506192423 83 189 1.0 2.0 0.00 0.00 0.00 71 1012.9
20260506191920 83 92 1.0 2.0 0.00 0.00 0.00 71 1012.8
20260506191416 84 63 1.0 1.0 0.00 0.00 0.00 70 1012.9
20260506190914 84 41 1.0 1.0 0.00 0.00 0.00 68 1012.8
20260506190410 85 63 0.0 0.0 0.00 0.00 0.00 67 1013.1
20260506185907 84 253 3.0 3.0 0.00 0.00 0.00 67 1013.0
20260506185404 85 273 1.0 1.0 0.00 0.00 0.00 68 1013.0
20260506184901 85 349 1.0 1.0 0.00 0.00 0.00 66 1013.1
20260506184358 84 107 0.0 1.0 0.00 0.00 0.00 69 1013.2
20260506183855 84 103 3.0 3.0 0.00 0.00 0.00 67 1013.3
20260506183350 83 120 2.0 2.0 0.00 0.00 0.00 69 1013.4
20260506182848 82 30 1.0 1.0 0.00 0.00 0.00 72 1013.2
20260506182345 82 71 1.0 2.0 0.00 0.00 0.00 72 1013.3
20260506181842 82 163 1.0 2.0 0.00 0.00 0.00 74 1013.5
20260506181340 82 63 2.0 2.0 0.00 0.00 0.00 74 1013.5
20260506180837 82 121 1.0 1.0 0.00 0.00 0.00 75 1013.5
20260506180333 81 89 1.0 2.0 0.00 0.00 0.00 76 1013.4
20260506175830 80 172 2.0 2.0 0.00 0.00 0.00 77 1013.3
20260506175327 79 178 1.0 2.0 0.00 0.00 0.00 80 1013.7
20260506174824 79 113 3.0 5.0 0.00 0.00 0.00 81 1013.5
20260506174321 79 102 1.0 2.0 0.00 0.00 0.00 81 1013.9
20260506173818 78 74 1.0 1.0 0.00 0.00 0.00 81 1013.7
20260506173315 79 87 0.0 1.0 0.00 0.00 0.00 82 1013.7
20260506172812 78 65 1.0 2.0 0.00 0.00 0.00 83 1013.9
20260506172308 78 59 2.0 2.0 0.00 0.00 0.00 82 1013.8
20260506171806 78 35 0.0 1.0 0.00 0.00 0.00 83 1013.9
20260506171303 78 58 1.0 2.0 0.00 0.00 0.00 83 1013.7
20260506170801 78 71 1.0 1.0 0.00 0.00 0.00 84 1014.1
20260506170257 78 103 1.0 1.0 0.00 0.00 0.00 84 1014.1
20260506165755 77 53 1.0 2.0 0.00 0.00 0.00 84 1014.1
20260506165252 77 71 1.0 1.0 0.00 0.00 0.00 84 1013.9
20260506164749 77 61 2.0 3.0 0.00 0.00 0.00 84 1013.9
20260506164246 78 83 0.0 1.0 0.00 0.00 0.00 83 1014.0
20260506163743 78 52 3.0 3.0 0.00 0.00 0.00 84 1013.8
20260506163237 78 53 1.0 1.0 0.00 0.00 0.00 84 1013.9
20260506162734 77 90 1.0 1.0 0.00 0.00 0.00 84 1013.9
20260506162232 77 82 0.0 1.0 0.00 0.00 0.00 86 1013.9
20260506161729 77 73 3.0 3.0 0.00 0.00 0.00 85 1013.8
20260506161226 77 101 2.0 3.0 0.00 0.00 0.00 85 1013.8
20260506160724 77 112 2.0 3.0 0.00 0.00 0.00 86 1013.9
20260506160220 77 86 2.0 2.0 0.00 0.00 0.00 87 1013.8
20260506155719 77 11 1.0 2.0 0.00 0.00 0.00 85 1013.9
20260506155215 77 32 1.0 2.0 0.00 0.00 0.00 86 1013.8
20260506153317 75 60 2.0 2.0 0.00 0.00 0.00 91 1013.4
20260506152814 75 113 0.0 0.0 0.00 0.00 0.00 92 1013.4
20260506152311 75 74 1.0 1.0 0.00 0.00 0.00 93 1013.5
20260506151810 75 65 0.0 0.0 0.00 0.00 0.00 93 1013.2
20260506151306 75 94 0.0 1.0 0.00 0.00 0.00 93 1013.1
20260506150803 74 58 0.0 0.0 0.00 0.00 0.00 93 1013.2
20260506150304 74 83 2.0 2.0 0.00 0.00 0.00 93 1013.2
20260506145757 74 86 2.0 2.0 0.00 0.00 0.00 93 1013.0
20260506145253 75 58 0.0 0.0 0.00 0.00 0.00 92 1012.8
20260506144751 75 51 0.0 0.0 0.00 0.00 0.00 92 1013.1
20260506144248 75 17 1.0 1.0 0.00 0.00 0.00 91 1013.1
20260506143745 75 40 0.0 0.0 0.00 0.00 0.00 91 1013.0
20260506143242 75 42 0.0 1.0 0.00 0.00 0.00 91 1013.1
20260506142741 75 37 1.0 2.0 0.00 0.00 0.00 91 1012.9
20260506142238 75 42 0.0 0.0 0.00 0.00 0.00 91 1013.1
20260506141736 74 49 0.0 0.0 0.00 0.00 0.00 92 1012.8
20260506141235 74 76 0.0 1.0 0.00 0.00 0.00 92 1012.6
20260506140732 74 68 0.0 0.0 0.00 0.00 0.00 92 1012.6
20260506140229 74 72 0.0 1.0 0.00 0.00 0.00 92 1012.4
20260506135725 74 9 1.0 1.0 0.00 0.00 0.00 92 1012.4
20260506135222 74 50 0.0 0.0 0.00 0.00 0.00 92 1012.4
20260506134719 74 76 1.0 1.0 0.00 0.00 0.00 92 1011.9
20260506134215 74 33 0.0 1.0 0.00 0.00 0.00 92 1011.8
20260506133712 74 117 1.0 1.0 0.00 0.00 0.00 92 1012.0
20260506133208 74 82 1.0 1.0 0.00 0.00 0.00 92 1011.8
20260506132706 74 97 1.0 2.0 0.00 0.00 0.00 92 1011.6
20260506132203 74 97 0.0 1.0 0.00 0.00 0.00 93 1011.7
20260506131700 74 92 1.0 1.0 0.00 0.00 0.00 93 1011.8
20260506131156 74 125 2.0 2.0 0.00 0.00 0.00 93 1011.5
20260506130653 74 97 0.0 1.0 0.00 0.00 0.00 93 1011.6
20260506130151 74 119 1.0 2.0 0.00 0.00 0.00 93 1011.5
20260506125649 74 76 0.0 1.0 0.00 0.00 0.00 93 1011.1
20260506125146 74 108 2.0 2.0 0.00 0.00 0.00 93 1011.2
20260506124644 74 34 0.0 1.0 0.00 0.00 0.00 94 1011.6
20260506124142 74 132 1.0 1.0 0.00 0.00 0.00 94 1011.2
20260506123639 74 172 1.0 1.0 0.00 0.00 0.00 93 1011.2
20260506123138 74 99 1.0 2.0 0.00 0.00 0.00 93 1011.2
20260506122634 74 4 0.0 1.0 0.00 0.00 0.00 93 1011.5
20260506122132 74 299 0.0 1.0 0.00 0.00 0.00 92 1011.3
20260506121629 74 124 1.0 2.0 0.00 0.00 0.00 92 1011.2
20260506121125 74 68 0.0 0.0 0.00 0.00 0.00 92 1011.3
20260506120624 74 85 0.0 0.0 0.00 0.00 0.00 92 1011.3
20260506120121 74 45 0.0 0.0 0.00 0.00 0.00 92 1011.2
20260506115619 74 80 0.0 0.0 0.00 0.00 0.00 92 1011.2
20260506115117 74 338 1.0 1.0 0.00 0.00 0.00 91 1011.2
20260506114614 74 92 0.0 0.0 0.00 0.00 0.00 91 1011.2
20260506114112 74 63 0.0 0.0 0.00 0.00 0.00 91 1011.2
20260506113610 74 39 0.0 1.0 0.00 0.00 0.00 91 1011.0
20260506113107 74 45 1.0 1.0 0.00 0.00 0.00 91 1011.2
20260506112603 74 31 1.0 1.0 0.00 0.00 0.00 91 1011.2
20260506112101 74 42 0.0 0.0 0.00 0.00 0.00 91 1011.2
20260506111558 74 50 0.0 0.0 0.00 0.00 0.00 91 1011.2
20260506111055 74 31 0.0 0.0 0.00 0.00 0.00 91 1011.0
20260506110553 74 329 0.0 1.0 0.00 0.00 0.00 91 1011.1
20260506110050 74 92 0.0 1.0 0.00 0.00 0.00 91 1011.3
20260506105546 74 38 0.0 1.0 0.00 0.00 0.00 91 1011.3
20260506105044 74 15 0.0 1.0 0.00 0.00 0.00 91 1011.1
20260506104541 74 70 1.0 2.0 0.00 0.00 0.00 91 1011.3
20260506104039 74 291 0.0 1.0 0.00 0.00 0.00 91 1011.1
20260506103536 74 286 1.0 2.0 0.00 0.00 0.00 91 1010.9
20260506103032 74 110 0.0 1.0 0.00 0.00 0.00 91 1010.9
20260506102531 74 303 1.0 1.0 0.00 0.00 0.00 91 1011.1
20260506102028 74 46 0.0 1.0 0.00 0.00 0.00 91 1011.1
20260506101525 74 55 0.0 0.0 0.00 0.00 0.00 91 1011.1
20260506101022 74 242 1.0 1.0 0.00 0.00 0.00 90 1011.2
20260506100520 74 66 0.0 1.0 0.00 0.00 0.00 90 1011.1
20260506100018 74 39 0.0 1.0 0.00 0.00 0.00 90 1011.0
20260506095517 74 56 3.0 5.0 0.00 0.00 0.00 90 1010.9
20260506095012 74 188 1.0 3.0 0.00 0.00 0.00 91 1010.8
20260506094510 74 73 1.0 1.0 0.00 0.00 0.00 91 1010.8
20260506094008 74 73 0.0 0.0 0.00 0.00 0.00 91 1011.0
20260506093506 74 56 1.0 1.0 0.00 0.00 0.00 91 1011.0
20260506093004 74 349 2.0 2.0 0.00 0.00 0.00 91 1011.0
20260506092501 74 339 1.0 1.0 0.00 0.00 0.00 91 1010.9
20260506091957 74 61 2.0 2.0 0.00 0.00 0.00 90 1010.7
20260506091456 74 109 1.0 2.0 0.00 0.00 0.00 90 1010.7
20260506090952 74 33 1.0 1.0 0.00 0.00 0.00 90 1010.8
20260506090450 74 3 0.0 1.0 0.00 0.00 0.00 90 1010.7
20260506085946 74 211 1.0 2.0 0.00 0.00 0.00 90 1010.8
20260506085443 74 215 1.0 1.0 0.00 0.00 0.00 90 1010.8
20260506084940 74 50 0.0 1.0 0.00 0.00 0.00 90 1010.7
20260506084437 74 271 3.0 5.0 0.00 0.00 0.00 90 1010.8
20260506083933 74 269 1.0 1.0 0.00 0.00 0.00 90 1011.0
20260506083430 74 245 3.0 5.0 0.00 0.00 0.00 90 1010.9
20260506082927 74 131 0.0 1.0 0.00 0.00 0.00 90 1010.8
20260506082425 74 136 7.0 10.0 0.00 0.00 0.00 91 1010.9
20260506081920 74 139 0.0 1.0 0.00 0.00 0.00 91 1011.0
20260506081419 74 115 1.0 2.0 0.00 0.00 0.00 90 1010.9
20260506080915 74 110 0.0 1.0 0.00 0.00 0.00 90 1011.0
20260506080412 74 130 1.0 1.0 0.00 0.00 0.00 90 1011.1
20260506073356 75 198 2.0 5.0 0.00 0.00 0.00 90 1011.1
20260506072853 75 174 3.0 3.0 0.00 0.00 0.00 90 1011.0
20260506072351 75 236 1.0 1.0 0.00 0.00 0.00 90 1011.2
20260506071848 75 33 1.0 1.0 0.00 0.00 0.00 90 1011.3
20260506071346 75 74 2.0 3.0 0.00 0.00 0.00 90 1011.5
20260506070843 75 94 0.0 1.0 0.00 0.00 0.00 90 1011.3
20260506070340 75 128 2.0 2.0 0.00 0.00 0.00 90 1011.7
20260506062317 75 118 0.0 1.0 0.00 0.00 0.00 90 1011.6
20260506061813 75 141 1.0 2.0 0.00 0.00 0.00 90 1011.7
20260506061310 75 333 3.0 3.0 0.00 0.00 0.00 90 1011.8
20260506060808 75 103 1.0 1.0 0.00 0.00 0.00 89 1011.8
20260506060306 75 317 1.0 1.0 0.00 0.00 0.00 89 1011.7
20260506051237 76 259 1.0 2.0 0.00 0.00 0.00 89 1011.6
20260506050735 76 79 2.0 2.0 0.00 0.00 0.00 89 1011.8
20260506050232 76 263 2.0 3.0 0.00 0.00 0.00 88 1011.6
20260506044723 76 298 1.0 1.0 0.00 0.00 0.00 88 1011.2
20260506044220 76 78 2.0 2.0 0.00 0.00 0.00 88 1011.3
20260506043718 76 123 1.0 2.0 0.00 0.00 0.00 88 1011.0
20260506043215 76 139 1.0 5.0 0.00 0.00 0.00 88 1011.3
20260506042714 76 118 1.0 1.0 0.00 0.00 0.00 88 1011.3
20260506042212 76 21 1.0 1.0 0.00 0.00 0.00 87 1011.5
20260506041710 77 116 1.0 1.0 0.00 0.00 0.00 87 1011.3
20260506041207 77 119 1.0 2.0 0.00 0.00 0.00 87 1011.3
20260506040704 77 52 3.0 5.0 0.00 0.00 0.00 87 1011.2
20260506040201 77 335 0.0 1.0 0.00 0.00 0.00 87 1011.1
20260506035658 77 0 1.0 1.0 0.00 0.00 0.00 87 1011.0
20260506035155 77 61 1.0 2.0 0.00 0.00 0.00 87 1011.0
20260506034651 77 117 2.0 2.0 0.00 0.00 0.00 87 1010.9
20260506034149 77 143 2.0 2.0 0.00 0.00 0.00 86 1010.9
20260506033646 77 133 1.0 2.0 0.00 0.00 0.00 86 1010.9
20260506033143 77 71 2.0 2.0 0.00 0.00 0.00 86 1011.1
20260506032640 77 140 2.0 5.0 0.00 0.00 0.00 86 1010.7
20260506032137 77 155 2.0 5.0 0.00 0.00 0.00 86 1010.6
20260506031633 77 107 3.0 3.0 0.00 0.00 0.00 86 1010.6
20260506031130 77 133 2.0 2.0 0.00 0.00 0.00 85 1010.5
20260506030629 78 100 1.0 1.0 0.00 0.00 0.00 85 1010.6
20260506030126 78 339 2.0 3.0 0.00 0.00 0.00 84 1010.4
20260506025623 78 263 1.0 2.0 0.00 0.00 0.00 84 1010.5
20260506025119 78 61 2.0 3.0 0.00 0.00 0.00 84 1010.4
20260506024617 78 99 0.0 1.0 0.00 0.00 0.00 83 1010.2
20260506024112 78 135 4.0 5.0 0.00 0.00 0.00 83 1010.0
20260506023608 79 46 0.0 1.0 0.00 0.00 0.00 82 1009.9
20260506023106 79 78 2.0 3.0 0.00 0.00 0.00 81 1009.9
20260506022604 79 204 1.0 2.0 0.00 0.00 0.00 81 1009.8
20260506022101 79 77 0.0 1.0 0.00 0.00 0.00 80 1009.8
20260506021559 79 100 1.0 1.0 0.00 0.00 0.00 79 1009.6
20260506021055 80 84 2.0 2.0 0.00 0.00 0.00 79 1009.5
20260506020553 80 126 1.0 2.0 0.00 0.00 0.00 78 1009.6
20260506020050 80 119 0.0 1.0 0.00 0.00 0.00 77 1009.4
20260506015548 80 148 3.0 3.0 0.00 0.00 0.00 77 1009.4
20260506015044 80 121 1.0 1.0 0.00 0.00 0.00 77 1009.3
20260506014542 80 78 1.0 2.0 0.00 0.00 0.00 77 1009.4
20260506014037 80 104 1.0 1.0 0.00 0.00 0.00 77 1009.2
20260506013536 81 71 0.0 0.0 0.00 0.00 0.00 76 1009.2
20260506013032 81 99 0.0 1.0 0.00 0.00 0.00 76 1009.2
20260506012528 81 90 1.0 1.0 0.00 0.00 0.00 75 1009.2
20260506012025 81 99 2.0 2.0 0.00 0.00 0.00 75 1009.3
20260506011523 81 67 0.0 1.0 0.00 0.00 0.00 75 1009.2
20260506011019 82 65 0.0 0.0 0.00 0.00 0.00 74 1009.3
20260506010519 82 109 2.0 2.0 0.00 0.00 0.00 73 1009.0
20260506010015 82 85 3.0 3.0 0.00 0.00 0.00 72 1009.0
20260506005512 83 144 0.0 2.0 0.00 0.00 0.00 72 1008.9
20260506005008 83 107 1.0 2.0 0.00 0.00 0.00 71 1008.9
20260506004506 83 116 3.0 3.0 0.00 0.00 0.00 70 1008.8
20260506004001 84 141 1.0 2.0 0.00 0.00 0.00 71 1008.9
20260506003458 84 73 1.0 1.0 0.00 0.00 0.00 69 1008.9
20260506002954 84 74 0.0 1.0 0.00 0.00 0.00 68 1008.9
20260506002451 84 98 0.0 0.0 0.00 0.00 0.00 69 1008.9
20260506001946 84 97 1.0 1.0 0.00 0.00 0.00 68 1008.6
20260506001443 84 57 0.0 1.0 0.00 0.00 0.00 68 1008.7